THORAD DELTA 1 DEB, 8178

Orbit data source: Space-Track

THORAD DELTA 1 DEB, 8178 is space debris in SSO originally from a launch on Fri, 15 Nov 1974 UTC launched from the Air Force Western Test Range (AFWTR). Debris objects in space refer to the collection of defunct objects orbiting the Earth. Examples of debris include non-operational satellites, rocket bodies, and fragments generated from explosions, collisions, or faulty payload assembly.

Loading next visibility...
Identifier
8178, 1974-089AU
Orbit
SSO
Country
Flag of USUS
Related business
Manufacturer
Unknown
Mission
Spacecraft
Bus & Motor
Unknown
Mass
Unknown
Launch date (UTC)
1974-11-15 (52 years ago)
Launch vehicle
Unknown
Launch site
Air Force Western Test Range (AFWTR)
Object type
Payload
Rocket body
Debris
Shape & HBR
Unknown shape, 0.1 m
Radar Cross Section
Medium (>0.1 m² and <1 m²)

Expand to show TLE details & history
Last TLE update: 6 days ago

TLE from 6 days ago
0 THORAD DELTA 1 DEB
1 08178U 74089AU  26168.01909903  .00000351  00000-0  22639-2 0  9999
2 08178 102.3146 237.4220 0175489  11.3076 112.8844 12.56875882325892
Epoch: 2026-06-17T00:27Z
TLE epoch observation values (Epoch: 2026-06-17T00:27:30.156Z)
Latitude
52.29096°
Longitude
161.5822°
Altitude
1,499.47 km
Speed
7.094 km/s
True Right ascension
04h 54m 57s
True Declination
52° 08' 24"
Sunlit
Object was in daylight at epoch
Visualization orbit readout
Latitude
Unknown
Longitude
Unknown
Altitude
Unknown
Speed
Unknown
Apparent Right ascension
Unknown
Apparent Declination
Unknown
Sunlit
N/A
Visualization observer readout
Local Sidereal Time
01:06:00
Azimuth
Unknown
Elevation
Unknown
Doppler factor
Unknown
Orbital elements
Apogee altitude
1,570.521 km
Perigee altitude
1,296.352 km
Semi-major axis
7,811.574 km
Eccentricity
0.01755
Inclination
102.3146°
RAAN
237.422°
Arg. of periapsis
11.3076°
True anomaly
114.72109°
Mean anomaly
112.8844°
Eccentric anomaly
113.80434°
Mean motion
3.14366 °/min
Orbital period
114.52 mins
BSTAR
0.0022639
Loading maneuver chart data...
Computing Atmospheric mass density...

Documentation

Showing up to 5 results
|